RH
60 65 68 66 63 61 60 60 61 61 61 61 61 58 57 57 56 56 56 56 56 57 57 57 57 57 56 56 56 55 55 55 55 56 56 56 57 56 55 54 52 51 50 49 47 46 45 45 44 43 43 42 40 39 38 37 38 38 39 39 38 39 40 41 50 52 38 32 36 36 34 30 26 24 21 18 18 18 17 18 18 17 18 18 18
48 52 58 63 66 67 67 65 63 63 62 61 61 59 58 57 56 57 57 56 57 57 57 58 57 58 58 57 57 56 55 55 55 55 56 57 57 57 56 55 54 52 51 50 49 48 47 46 46 45 45 45 43 43 41 39 39 39 39 40 40 39 40 38 41 48 45 36 33 35 32 29 28 27 24 22 20 19 20 19 20 20 19 20 19
54 51 49 50 55 60 66 69 70 70 68 66 65 63 62 61 60 61 60 59 59 59 60 60 59 60 60 59 59 57 56 56 56 56 56 57 57 57 57 56 55 54 52 52 50 49 49 48 47 48 47 47 46 45 45 43 41 41 40 40 40 39 39 39 39 43 47 43 37 35 34 32 33 33 29 26 23 21 22 21 21 21 21 21 21
63 61 56 53 51 52 56 60 64 67 68 68 68 67 66 64 64 64 63 63 63 63 64 65 65 65 64 63 62 60 59 57 56 56 56 56 57 57 58 57 56 55 53 53 52 50 50 49 49 49 49 49 49 48 48 47 44 43 41 40 40 40 40 40 40 40 45 49 46 42 40 39 38 36 32 28 26 24 24 23 23 22 21 21 22
65 64 63 62 60 58 57 57 58 60 62 63 63 62 61 60 60 60 60 62 63 65 67 69 72 72 70 69 67 64 63 60 58 57 56 56 56 56 58 58 57 56 55 54 53 52 51 50 49 50 50 51 51 51 50 49 48 46 44 43 42 43 43 43 42 42 46 52 55 50 47 45 43 39 35 31 29 28 27 26 24 23 22 22 23
67 66 66 67 67 67 66 65 65 65 65 65 65 64 64 63 62 62 62 63 63 64 67 69 72 75 74 74 72 70 67 64 61 59 57 56 56 56 57 58 58 58 57 56 55 54 52 51 50 50 51 51 52 52 52 51 51 50 49 49 48 48 50 50 49 50 51 55 60 58 52 50 47 43 39 36 35 34 33 32 28 25 26 26 25
70 71 71 72 73 74 74 74 73 72 72 71 71 70 69 68 67 65 64 63 62 62 63 65 67 71 73 74 74 73 71 68 64 61 59 57 56 57 58 59 59 59 59 58 57 56 54 53 52 51 51 51 50 52 54 54 55 56 55 56 58 60 61 62 62 62 61 61 64 64 61 56 52 50 47 43 42 42 40 37 34 31 29 28 28
72 75 76 76 77 78 77 76 75 73 72 71 70 69 69 69 68 68 66 64 62 60 59 59 59 61 64 66 69 70 70 69 66 63 61 58 57 57 57 58 60 60 61 60 59 58 56 54 53 52 51 50 50 51 53 56 59 62 64 65 67 70 71 72 72 72 71 70 70 71 69 63 58 56 55 53 52 51 46 42 40 36 31 31 35
70 72 75 76 76 75 73 70 67 65 63 62 62 61 61 62 62 64 65 66 66 65 63 61 59 57 56 55 56 59 61 62 61 60 59 57 56 56 57 58 60 61 62 62 61 60 58 56 54 53 52 51 51 51 52 55 59 63 67 71 73 75 77 79 80 80 80 80 79 77 76 73 68 63 62 60 58 56 51 46 45 41 39 41 43
71 68 68 69 69 66 65 64 62 61 60 60 60 59 58 58 58 58 60 62 65 67 67 68 66 63 60 56 53 52 52 53 54 54 54 54 54 55 57 59 60 62 63 63 63 62 61 60 57 55 55 53 53 54 54 56 59 61 65 68 72 76 80 84 85 85 85 86 85 83 82 80 76 71 68 65 60 58 55 51 49 48 51 55 52
74 69 65 65 65 64 64 65 65 65 65 65 64 63 62 62 61 60 60 61 62 64 66 68 70 71 70 67 64 62 61 60 59 58 57 59 60 58 59 61 63 65 66 65 66 66 65 64 63 61 61 60 59 60 59 60 61 62 64 67 69 72 76 82 87 88 88 88 86 86 86 85 81 75 72 69 65 61 56 53 53 54 59 65 64
78 74 69 67 68 69 69 71 72 71 70 70 68 67 67 65 65 65 64 65 65 65 66 67 69 71 72 73 72 71 71 70 70 71 74 77 77 72 67 66 66 67 69 69 69 70 69 69 68 67 66 66 66 65 65 66 65 65 67 68 70 71 72 75 79 82 85 87 88 88 87 86 84 80 76 73 69 63 58 57 57 56 58 64 67
81 78 74 72 72 73 73 73 74 74 73 72 70 69 68 66 67 67 67 68 68 69 69 69 70 71 71 73 74 74 76 75 77 85 93 93 92 90 85 80 76 73 72 72 71 72 73 72 72 71 70 69 70 70 70 71 71 71 72 71 73 74 74 76 79 79 78 81 86 88 87 85 85 83 78 74 69 64 62 61 58 57 59 61 60
81 78 76 75 74 74 74 74 75 75 75 74 72 71 70 69 68 67 67 68 69 70 71 72 73 73 73 74 74 74 78 81 84 92 99 99 97 99 97 94 91 86 80 78 77 76 76 76 75 74 74 74 75 75 75 76 76 77 78 79 81 80 78 83 90 92 88 85 86 86 86 85 84 82 78 73 68 63 61 58 54 53 54 55 54
82 80 80 79 78 78 78 78 77 77 76 76 76 75 74 73 71 69 68 69 69 70 70 71 73 74 74 76 75 75 82 92 95 96 99 100 99 100 100 99 99 98 94 91 90 89 87 87 85 84 83 83 82 82 82 81 82 84 86 88 90 90 88 86 89 94 96 96 94 91 89 87 84 82 78 73 70 65 59 52 48 49 52 55 60
83 83 83 83 83 83 82 82 81 79 77 77 77 77 77 77 75 72 70 69 68 68 68 68 70 71 73 75 76 77 83 93 99 98 98 100 99 97 98 98 98 99 100 98 98 98 98 97 96 95 92 90 88 88 89 89 88 89 91 93 93 95 95 92 89 91 95 99 100 96 91 88 85 84 81 77 73 67 59 54 53 56 62 69 75
87 86 87 87 87 87 86 85 83 81 79 77 76 76 76 76 76 74 72 69 66 66 65 66 67 68 69 70 73 75 77 86 95 98 97 97 95 90 89 90 90 91 92 92 92 94 96 97 99 99 99 97 94 93 94 96 97 95 95 96 96 98 98 95 93 95 97 100 101 97 93 89 85 86 86 81 74 66 60 61 63 66 74 83 87
90 90 89 88 89 89 89 88 86 83 83 81 80 79 77 75 75 75 74 71 67 65 64 64 64 64 64 64 66 67 66 69 82 94 98 97 94 90 86 85 85 84 82 82 82 82 82 85 88 90 92 91 89 93 98 100 100 99 98 98 99 101 99 93 89 89 92 95 96 94 93 90 88 90 93 91 88 83 79 76 73 74 83 90 91
91 92 91 90 90 91 90 90 89 88 87 85 83 82 80 77 75 75 74 72 69 66 63 63 62 61 61 60 59 61 60 57 64 83 98 100 97 95 92 87 84 84 83 82 81 80 79 78 78 81 84 82 81 89 99 101 99 100 100 100 102 101 97 93 90 88 88 89 90 89 86 81 80 85 90 93 96 97 95 94 92 90 92 94 92
92 92 91 90 90 91 92 92 91 91 89 87 84 81 78 75 74 73 73 73 72 69 65 63 62 61 62 62 61 61 63 60 59 69 86 95 98 100 96 88 85 85 85 85 84 83 82 79 76 78 84 88 90 95 100 101 100 101 99 99 101 100 95 92 91 90 88 87 85 83 79 73 70 69 71 74 78 78 78 84 92 96 99 99 97
93 92 91 90 90 91 92 92 92 93 92 89 84 77 72 70 69 69 70 72 73 72 70 67 67 66 65 67 67 66 66 65 62 62 69 80 92 100 96 87 85 87 89 92 93 90 87 84 79 75 78 85 90 92 94 96 98 101 102 101 101 100 98 96 92 90 90 89 86 83 79 74 70 67 65 66 67 67 67 69 76 86 94 98 99
95 94 93 92 91 90 88 88 88 89 90 88 83 76 69 67 68 68 70 71 72 73 74 72 71 71 70 69 70 68 65 64 62 58 55 58 71 89 94 88 89 95 97 98 99 96 94 92 88 83 82 88 92 91 90 90 90 92 95 95 94 95 97 99 98 96 96 95 91 88 84 79 77 75 74 73 72 72 72 71 73 80 87 91 94
96 96 94 91 87 81 78 80 82 84 86 87 85 79 69 63 62 62 63 66 68 70 72 71 69 68 65 62 58 56 53 48 45 43 41 38 49 76 95 95 95 100 101 99 99 99 97 95 91 87 87 94 97 96 96 95 93 93 92 91 93 95 94 97 100 101 101 100 99 98 95 93 92 91 90 88 84 81 79 78 79 84 89 91 92
97 95 89 80 72 68 73 82 86 87 87 87 87 82 75 68 64 62 61 63 66 68 69 69 68 64 58 51 44 42 42 41 40 43 46 44 49 71 95 102 98 95 94 95 95 95 94 95 93 91 91 94 93 94 97 99 98 99 98 97 99 100 97 97 99 99 100 100 99 99 99 99 100 100 99 96 94 93 94 93 92 92 92 93 94
98 87 73 63 59 63 73 84 90 91 91 91 89 86 82 79 73 67 63 64 69 74 74 72 70 67 61 51 44 46 51 55 57 61 65 63 60 68 83 89 82 73 70 69 67 64 70 81 88 91 95 99 100 100 101 101 99 99 98 97 97 97 94 94 94 94 95 94 93 93 92 89 87 86 87 89 90 92 93 94 95 95 94 94 94
90 71 59 55 54 56 61 66 70 75 78 80 79 76 73 68 61 55 54 59 69 75 76 76 75 73 66 58 58 65 71 73 73 72 72 70 66 64 67 69 68 71 76 77 74 71 73 78 80 77 74 76 78 81 84 86 86 86 83 81 79 77 77 78 80 83 85 85 84 83 80 77 75 74 76 81 85 86 86 87 90 93 96 98 99
76 60 54 53 51 51 51 50 50 51 53 54 54 53 50 49 49 47 47 53 62 68 76 83 82 76 71 71 76 83 83 81 81 79 75 74 73 73 76 78 83 90 94 92 91 91 92 92 89 83 75 71 68 67 66 65 64 63 61 62 64 65 68 73 77 81 83 83 83 83 81 80 81 80 79 81 83 84 86 90 94 95 96 100 103
67 57 55 54 51 51 52 51 50 49 48 48 49 50 49 49 48 47 53 67 78 83 86 86 80 78 83 88 92 93 90 87 84 81 80 85 90 93 94 95 96 96 93 88 87 87 89 91 92 91 89 86 84 81 78 75 72 70 70 72 76 79 81 84 87 89 90 91 92 93 92 91 91 90 88 88 87 84 84 88 94 95 96 99 102
63 58 57 56 55 54 53 53 55 54 53 53 54 56 57 55 50 50 65 86 94 88 84 82 82 89 98 99 98 99 98 92 86 85 91 98 101 100 100 99 99 97 95 94 92 90 89 88 86 84 82 81 81 82 82 83 85 85 86 88 90 92 92 93 93 94 96 99 100 101 100 100 99 98 98 98 96 91 89 90 92 93 96 101 103
64 61 61 60 60 60 59 59 60 61 62 62 59 54 53 55 60 73 88 94 87 85 90 94 96 100 102 100 100 101 100 97 94 97 101 101 99 100 101 101 100 98 97 98 98 98 99 97 94 93 91 90 92 93 92 93 93 93 93 93 93 93 94 96 98 99 100 101 101 101 101 101 100 99 100 101 99 95 94 95 95 96 100 104 105
68 65 64 65 66 67 65 64 63 64 68 72 71 65 59 56 62 77 89 86 80 88 100 102 99 100 101 100 100 100 100 101 101 100 100 101 101 101 99 97 98 98 98 98 99 100 101 100 100 100 99 99 101 101 99 99 97 95 93 92 92 94 96 98 99 100 100 101 101 101 101 101 101 100 100 101 101 99 98 99 100 101 103 103 103
73 70 70 73 74 73 71 70 69 69 70 74 77 77 76 73 68 67 71 73 78 91 102 101 100 102 102 100 101 101 100 101 101 101 103 102 97 91 89 94 99 101 99 97 97 98 99 99 99 100 99 99 100 100 100 99 98 96 95 94 93 95 96 97 98 97 96 97 98 99 99 98 99 99 99 100 101 100 100 100 100 101 101 101 101
79 77 78 82 83 80 77 74 73 74 75 76 77 80 84 89 88 80 73 71 75 84 92 94 95 96 93 92 96 101 101 100 101 101 98 92 88 89 93 99 102 100 97 94 93 93 93 93 92 92 92 92 92 92 92 92 92 94 95 94 95 95 95 95 95 93 91 91 92 93 92 91 92 95 96 97 98 98 99 99 98 98 99 100 101
83 83 86 89 90 87 83 79 77 78 79 81 84 86 88 92 97 97 93 88 86 84 82 81 82 82 80 78 83 92 99 102 100 96 91 89 93 99 102 102 101 99 95 92 91 90 89 88 87 86 85 85 85 84 85 86 88 90 91 92 93 93 92 91 90 88 87 85 83 83 85 88 92 94 92 92 92 93 94 94 94 96 98 100 101
85 86 89 93 93 89 85 82 81 83 85 88 91 94 95 96 98 100 103 105 104 100 94 88 84 83 81 80 83 92 99 101 98 94 94 98 102 103 100 96 93 90 88 86 86 87 87 86 86 85 84 83 84 84 86 87 88 89 89 89 89 88 87 86 84 82 80 79 80 84 89 92 93 90 86 86 86 86 90 92 93 97 100 100 100
85 88 90 92 91 88 84 83 85 89 92 95 96 99 101 103 103 103 104 106 106 106 102 95 90 87 84 83 85 92 98 99 99 99 100 102 102 97 91 87 84 83 84 85 86 87 88 88 87 85 85 84 86 89 92 93 93 92 91 89 87 86 84 82 80 80 81 85 90 94 94 91 87 84 82 82 82 86 92 96 97 99 100 100 101
86 89 90 90 89 87 84 84 89 95 97 98 101 104 105 106 106 107 106 106 106 105 100 94 90 87 83 82 85 89 91 92 96 99 98 97 95 91 86 84 85 85 84 85 87 89 90 89 88 87 85 85 89 93 95 95 93 91 89 88 88 86 85 85 89 92 94 93 93 90 85 82 83 86 88 87 86 88 93 96 97 97 95 93 94
87 88 89 89 88 85 86 89 94 98 100 101 104 105 106 106 105 104 104 104 104 103 98 93 92 90 88 88 90 90 86 84 87 91 89 87 89 93 94 91 89 88 85 83 85 89 91 93 93 91 89 89 91 92 91 90 89 89 88 87 87 85 85 85 87 89 88 85 82 80 79 82 87 91 91 88 84 80 80 82 87 91 92 90 90
82 82 85 88 87 87 91 97 99 100 102 103 104 104 105 105 103 102 102 102 101 99 97 95 95 94 93 92 91 90 89 92 94 95 94 92 93 98 100 96 92 90 88 86 87 92 97 98 96 93 91 90 90 90 89 89 88 87 85 84 82 80 79 78 77 77 78 77 77 78 83 89 93 93 91 88 81 74 72 73 77 87 97 101 99
77 79 82 84 86 90 97 100 101 103 104 104 103 104 106 106 105 104 103 102 100 98 98 99 98 95 92 92 92 92 96 100 101 101 101 100 98 98 96 93 91 91 90 90 92 96 98 96 93 91 90 90 90 90 90 88 86 83 81 80 78 77 77 78 78 79 80 80 82 84 88 91 91 89 86 83 76 73 74 76 78 88 102 106 101
83 84 84 84 88 94 99 100 101 103 104 103 102 103 105 107 108 106 103 101 101 101 102 102 99 95 92 93 95 99 102 102 101 102 103 102 101 99 93 88 89 92 94 96 97 96 93 90 88 89 90 91 91 89 86 84 82 81 79 78 78 79 80 81 82 83 84 86 86 86 86 84 82 77 74 72 71 73 78 83 88 97 104 103 98
89 90 89 91 94 96 99 101 102 103 103 102 102 104 107 108 108 106 103 102 103 104 106 103 98 95 94 94 95 97 98 96 96 98 100 102 102 98 90 86 90 95 97 97 96 94 90 87 87 90 92 91 89 86 83 82 81 81 80 81 82 82 82 83 83 85 86 85 83 82 78 74 68 64 64 71 80 84 86 92 100 105 105 101 98
90 92 92 95 96 98 101 103 103 103 103 103 104 106 106 106 105 103 102 103 103 104 104 101 98 97 95 91 88 88 87 88 92 96 99 102 101 95 89 88 92 95 97 97 95 91 87 86 87 89 89 87 85 83 82 82 81 81 82 83 84 84 85 86 86 86 86 83 80 76 71 67 67 70 77 85 91 92 93 99 104 104 104 104 99
89 93 95 97 98 102 105 104 103 103 103 103 105 105 103 102 102 100 100 101 101 101 101 101 101 100 94 89 88 88 86 87 92 97 99 101 99 92 88 90 93 94 94 93 91 87 85 86 87 87 85 84 84 83 82 82 81 79 78 77 77 78 78 79 81 86 88 86 81 77 76 80 87 95 99 99 99 97 98 101 103 103 105 105 96
89 94 97 100 102 105 105 103 104 106 104 104 105 103 100 100 99 98 99 101 101 101 102 103 102 99 93 89 91 92 91 91 93 93 94 96 96 93 90 90 93 94 92 90 88 88 87 86 86 85 84 84 84 83 82 79 74 71 70 70 71 71 72 74 79 84 87 87 87 88 93 98 102 104 103 101 100 101 101 101 101 103 104 102 97
90 95 99 103 106 107 104 102 105 107 105 104 104 102 99 99 98 98 100 102 103 103 104 104 101 98 94 92 94 94 94 94 94 91 89 91 94 95 93 91 92 93 91 89 89 89 88 87 86 85 85 86 84 81 76 71 69 70 73 75 75 77 82 86 88 88 88 91 95 100 103 102 101 101 102 100 98 98 97 99 103 105 104 102 97
92 97 101 104 106 104 102 101 104 106 104 102 102 102 101 100 99 99 102 104 106 106 105 102 100 98 95 93 94 94 94 95 95 93 90 88 90 93 94 91 91 92 91 88 88 88 87 87 86 86 86 85 80 73 69 67 70 76 81 83 85 88 92 94 95 95 97 100 102 104 104 102 99 100 101 99 98 98 98 99 103 103 100 94 87
94 98 102 105 105 103 101 101 104 105 104 103 104 105 104 103 102 103 105 107 107 106 103 99 98 97 96 94 92 91 93 95 95 94 90 86 84 87 90 91 92 92 89 87 87 87 86 87 88 88 86 80 72 67 67 68 72 79 85 88 94 99 100 99 97 94 92 90 87 85 86 86 88 94 99 100 100 100 101 102 102 97 89 83 77
94 98 101 105 107 105 102 102 104 106 106 107 107 107 107 107 105 105 107 109 108 105 103 100 97 97 97 95 91 89 92 95 95 93 90 85 83 86 91 93 94 91 88 86 87 87 87 89 89 86 81 73 68 67 68 68 72 80 85 87 92 96 96 92 86 80 75 72 68 66 65 65 70 80 91 99 103 103 102 103 102 96 88 82 79
94 97 100 105 107 106 102 101 103 106 107 108 106 105 107 109 108 106 107 109 108 106 104 102 101 100 98 94 91 90 91 93 92 91 88 85 86 91 94 93 91 88 86 87 88 88 89 91 89 82 76 71 69 70 71 71 75 81 85 85 87 88 87 83 80 79 79 78 76 73 70 68 68 71 77 86 95 101 104 106 107 103 97 92 89
94 97 102 105 107 105 102 100 101 104 107 108 107 106 108 109 108 107 107 108 108 106 104 103 104 103 99 94 92 92 92 91 91 90 88 87 89 93 94 92 88 87 86 87 88 89 91 91 85 78 74 73 73 72 73 75 79 84 86 84 81 80 79 79 79 82 87 90 89 86 82 79 77 78 78 80 85 92 101 107 109 107 106 106 103
Wind_Speed
21 18 15 15 18 20 21 22 22 24 25 25 26 27 26 26 26 26 27 27 28 29 30 30 31 32 32 33 34 35 36 36 37 37 37 38 38 37 36 36 37 38 36 36 36 35 36 37 38 38 36 36 37 37 37 37 35 35 34 33 33 31 30 25 17 13 12 14 17 19 20 21 19 18 18 17 18 18 17 17 17 17 18 18 18
29 25 20 17 15 15 16 17 18 19 19 21 22 22 23 23 23 24 25 26 26 26 27 28 29 30 31 32 33 34 35 36 36 36 37 38 37 37 36 35 37 37 35 35 36 35 36 37 37 36 35 35 36 35 36 35 34 33 33 31 32 32 32 29 24 18 14 16 18 20 21 21 21 20 20 20 20 19 19 19 18 19 19 20 21
32 28 25 21 18 15 13 12 12 13 14 16 17 17 18 18 19 20 22 23 24 25 26 26 27 28 30 32 33 33 34 35 35 36 36 37 37 37 36 36 37 37 36 36 36 35 36 36 36 35 33 33 34 34 33 33 32 32 33 32 32 32 32 31 28 23 18 17 20 22 23 23 23 23 23 22 20 20 21 21 20 21 22 23 24
33 30 26 23 20 16 14 12 10 10 10 10 11 12 12 13 14 16 18 20 21 22 23 24 26 27 29 31 32 33 34 34 34 35 36 36 37 37 36 36 37 37 37 37 36 35 35 36 36 34 32 32 33 32 31 31 31 32 32 32 32 32 31 31 31 27 22 18 19 22 24 24 24 24 23 22 21 21 22 22 22 23 24 25 26
33 31 28 25 21 18 15 14 12 11 10 9 9 9 9 9 10 11 13 15 16 17 19 21 23 25 27 28 29 31 32 33 34 35 35 36 36 36 36 36 37 37 37 37 36 35 35 36 35 33 32 32 32 31 31 31 31 32 32 31 31 31 30 31 32 30 25 21 18 18 21 22 23 22 23 23 23 23 23 23 23 23 24 26 26
31 30 28 25 22 19 17 15 13 12 11 10 9 9 8 8 8 8 9 11 11 12 13 15 17 20 22 24 26 28 29 30 32 33 34 34 35 35 35 35 35 35 35 35 35 35 35 36 35 33 32 33 32 32 31 31 31 31 32 31 30 30 29 30 30 29 28 25 20 18 19 21 22 22 23 23 23 24 23 23 23 24 25 27 27
29 26 24 22 19 17 16 14 13 12 11 10 10 9 9 8 8 7 7 8 8 8 8 9 11 13 16 18 20 23 24 26 28 30 31 32 33 33 33 33 33 33 33 33 33 33 34 35 34 33 33 34 34 33 32 31 31 32 32 31 29 28 28 28 28 28 28 25 22 20 20 22 22 23 22 22 21 22 21 21 24 26 26 27 28
26 23 20 17 15 14 13 12 11 11 10 10 10 9 9 9 9 8 8 7 7 7 7 7 7 8 10 12 14 17 20 22 24 26 28 29 31 31 31 31 31 30 30 30 31 32 32 33 33 33 34 35 35 34 33 32 32 31 31 30 29 28 28 28 27 26 26 25 23 21 21 21 22 21 20 19 19 21 22 23 26 27 26 27 27
22 19 17 15 12 12 11 11 11 10 10 10 10 10 10 10 9 9 8 8 8 7 7 7 7 6 7 7 9 11 13 16 18 20 23 25 27 29 29 29 29 28 28 28 29 29 30 31 32 32 33 34 34 34 34 34 33 32 31 30 30 29 28 27 26 25 24 23 22 20 19 20 22 22 21 22 24 25 24 24 26 27 25 26 26
22 19 16 13 12 11 11 12 12 12 12 12 12 12 11 11 11 10 10 9 8 8 8 7 7 6 6 6 6 6 7 9 11 13 16 19 21 24 25 26 26 26 26 26 26 27 27 28 29 30 31 32 32 32 33 34 34 34 33 32 32 31 30 28 27 26 24 22 22 21 19 20 22 24 26 27 27 26 23 23 25 24 21 21 24
22 19 16 13 13 13 13 14 14 14 14 14 14 13 13 12 12 11 11 10 10 10 9 8 8 7 6 5 5 5 5 6 7 8 10 12 15 18 20 22 23 24 24 25 25 25 25 25 26 27 28 29 29 30 31 32 33 34 34 34 34 33 32 30 28 27 26 24 24 23 22 21 22 25 27 26 26 26 26 26 26 23 19 17 18
20 18 15 13 13 14 14 14 15 15 15 14 14 14 13 13 13 12 12 12 11 11 10 9 8 7 6 5 5 4 4 4 4 5 6 7 10 13 14 17 20 21 22 23 23 23 23 23 23 24 25 26 26 27 28 30 31 32 33 34 35 35 35 33 31 30 29 27 25 24 25 23 22 25 28 26 26 28 28 27 26 24 23 21 19
18 16 14 13 13 13 13 14 14 14 13 13 13 12 12 12 12 12 11 11 10 10 9 8 7 6 5 5 4 3 3 3 3 2 3 5 7 10 12 14 15 17 19 20 21 21 22 21 22 22 23 23 24 25 26 27 29 30 32 33 34 35 35 34 32 32 32 32 29 27 27 26 26 28 29 27 27 28 27 27 26 26 26 26 26
17 15 14 14 14 15 15 15 15 14 13 12 11 11 11 10 10 9 9 9 9 8 7 6 6 5 4 3 3 2 2 2 2 1 2 3 5 8 10 12 14 15 16 17 18 19 20 20 21 21 21 21 22 23 24 25 26 28 29 31 32 33 33 32 29 28 29 31 31 30 29 29 29 29 28 27 27 28 27 27 27 27 28 28 28
16 16 15 16 16 17 17 17 16 16 14 13 12 11 10 9 9 8 8 8 7 7 6 5 5 4 3 3 2 1 2 3 4 3 3 3 4 4 3 5 9 12 13 14 15 16 17 18 19 19 20 20 20 21 22 23 24 26 27 28 30 30 31 32 30 29 29 30 31 31 30 30 30 29 28 28 28 28 28 28 28 27 27 26 25
16 16 16 17 17 17 17 17 17 16 15 14 13 12 11 10 9 8 7 6 6 5 4 4 4 3 3 2 1 1 2 4 6 6 5 4 3 2 3 2 3 4 5 7 8 10 12 14 15 17 18 18 18 19 20 21 23 24 25 26 28 28 30 31 31 31 31 31 32 32 32 31 30 30 30 29 29 29 28 28 27 24 22 22 21
16 16 17 17 17 17 17 17 17 17 16 15 15 14 13 11 10 9 8 7 6 5 4 4 3 3 2 2 2 1 2 3 6 7 6 6 6 4 4 3 2 1 0 1 2 3 5 7 9 11 13 15 16 17 18 19 21 24 25 26 27 27 29 30 30 30 30 29 30 32 32 32 31 30 30 30 30 30 29 28 27 24 22 18 16
17 17 17 17 17 17 17 17 17 17 17 16 16 15 14 13 12 10 9 8 7 5 4 4 3 3 2 2 2 2 1 2 4 6 6 6 6 6 4 4 3 2 2 2 3 3 4 4 5 7 8 9 11 13 14 17 20 23 24 26 26 27 28 29 30 31 31 30 31 30 30 29 28 27 27 26 26 27 29 30 29 27 24 19 17
19 19 19 18 18 17 17 17 17 17 17 16 16 16 15 15 13 12 10 9 8 6 5 4 3 2 2 2 1 1 1 0 1 4 6 6 6 6 5 4 3 3 3 4 5 5 5 6 7 8 9 9 10 12 14 16 20 22 24 25 26 27 28 29 30 32 32 33 33 33 32 30 29 28 27 26 25 26 27 28 28 27 26 24 22
20 20 20 20 19 18 17 17 17 16 16 16 16 16 15 15 14 13 11 9 8 7 5 4 3 2 2 2 3 3 4 4 3 4 6 6 6 6 6 5 5 5 6 6 7 7 7 8 8 9 10 11 12 14 16 17 19 22 24 26 27 27 27 28 29 31 32 33 34 34 34 33 32 32 32 31 31 31 31 30 28 27 27 26 24
20 21 21 20 20 19 18 17 16 16 15 16 16 15 14 14 13 12 11 9 8 7 6 4 4 4 3 4 5 6 7 8 8 8 8 8 7 7 7 8 7 7 8 8 8 8 9 9 10 11 11 13 14 16 17 18 20 21 23 24 26 26 27 29 31 32 32 33 33 34 34 34 33 34 34 35 35 35 34 34 32 31 30 29 26
21 21 21 20 20 19 18 17 15 15 15 15 15 14 12 11 11 11 10 9 8 8 7 7 6 6 6 7 7 8 9 10 11 11 11 11 9 8 8 8 7 8 8 8 8 9 10 10 10 10 11 12 13 15 16 18 20 22 23 23 24 24 24 26 29 30 31 32 32 32 33 33 34 34 34 35 35 34 34 34 34 33 32 32 30
22 22 21 20 19 17 16 14 13 13 13 12 12 12 11 10 9 10 10 10 10 9 9 9 9 9 9 9 9 9 9 9 10 11 10 10 9 8 8 8 7 7 8 8 9 9 10 10 11 11 12 13 14 15 16 17 18 18 19 18 17 16 15 14 16 19 21 23 23 24 24 26 28 30 32 34 35 35 35 35 35 34 33 33 33
21 21 20 19 18 16 13 11 10 10 10 10 9 9 9 9 9 9 9 10 10 10 9 9 10 11 11 12 11 9 8 8 8 8 9 9 8 8 8 8 8 8 9 9 10 11 12 12 12 12 13 13 14 14 14 13 13 12 12 11 11 10 10 9 9 9 10 11 12 12 13 13 16 19 23 26 27 27 27 28 28 29 30 31 32
19 18 17 16 15 14 12 10 9 9 8 9 9 9 9 10 10 10 10 9 9 9 9 9 9 10 11 12 12 10 8 7 7 7 8 8 8 8 9 9 9 9 9 10 11 12 13 14 14 14 15 15 15 14 13 14 14 14 14 14 15 14 13 12 12 11 11 11 11 12 13 14 15 16 17 18 19 19 20 21 22 22 23 25 27
18 16 14 13 12 12 12 11 10 9 9 9 10 10 10 11 11 10 9 9 9 8 8 8 8 9 10 10 10 10 9 9 9 9 8 9 10 10 10 10 10 10 11 12 12 12 12 12 13 14 16 17 18 19 20 21 21 21 20 19 19 19 18 16 15 14 15 15 15 17 18 18 19 19 18 17 19 20 21 22 23 23 23 23 26
15 14 13 12 12 11 12 12 11 10 10 10 10 10 9 9 10 9 8 8 8 8 8 8 8 9 9 10 10 12 13 13 12 10 9 9 11 11 11 12 13 13 13 13 13 13 13 13 13 14 15 16 17 19 20 21 22 23 23 21 20 19 18 17 16 16 16 17 18 18 18 18 17 18 18 18 19 20 20 21 23 24 24 23 24
13 13 12 12 12 12 12 12 12 11 10 9 9 9 8 7 7 7 6 6 8 8 8 8 8 8 9 11 12 14 15 14 12 10 11 12 12 12 13 13 12 12 12 12 12 12 12 13 13 15 16 17 18 18 19 19 20 21 21 20 19 18 17 16 16 16 15 16 16 17 16 16 17 17 17 18 20 20 20 20 22 23 23 22 21
12 12 12 12 12 12 11 11 11 11 10 9 9 8 7 7 7 6 5 6 7 8 8 8 9 10 11 13 14 14 14 13 11 11 12 12 13 13 12 9 8 10 11 11 12 13 14 14 15 15 16 17 18 18 18 18 18 18 18 18 18 17 16 15 15 15 14 13 14 15 14 15 16 16 16 18 19 19 19 20 21 22 22 22 21
12 12 12 12 12 12 12 12 11 10 10 9 9 8 6 5 5 6 7 7 6 6 8 10 11 12 12 11 9 9 10 10 10 11 12 13 13 13 10 9 11 15 16 16 16 17 16 16 17 17 17 17 17 17 17 17 17 17 16 16 15 15 14 13 12 12 11 11 11 11 11 12 13 14 15 17 18 18 18 19 21 21 21 21 21
12 13 12 12 12 12 12 12 11 10 9 8 9 10 9 7 4 3 5 6 6 5 7 9 9 8 8 7 6 6 8 9 11 13 14 14 14 13 14 16 17 16 14 13 14 13 11 10 9 9 10 11 11 12 12 11 11 12 11 11 10 10 9 9 8 8 8 7 8 7 7 8 8 9 10 11 13 13 14 15 17 19 21 21 20
12 13 13 13 13 12 12 12 11 10 9 8 8 9 11 11 9 6 5 5 5 5 5 6 6 6 7 7 7 8 10 10 11 12 13 14 16 18 18 16 12 10 10 10 10 9 9 7 6 5 5 5 5 5 5 5 6 6 7 7 7 6 6 6 6 7 7 7 7 6 6 7 7 7 8 8 9 9 10 10 11 14 16 18 19
12 13 13 13 13 13 12 11 10 10 9 9 9 9 10 11 13 13 12 9 6 4 3 4 6 7 8 8 8 9 9 9 10 11 13 15 16 16 12 7 6 8 10 9 9 8 8 7 7 6 6 6 6 6 7 7 7 7 8 8 7 7 8 8 8 9 9 8 8 9 9 9 9 9 9 9 10 10 10 11 11 12 14 14 15
12 13 13 13 14 14 13 11 10 10 9 9 10 10 10 10 11 13 16 15 12 9 7 6 7 8 9 9 8 8 9 9 9 11 12 13 12 10 8 8 9 11 11 9 8 8 8 8 8 7 7 7 7 8 8 8 8 8 8 8 8 8 8 9 10 10 10 10 10 11 10 10 10 10 10 10 10 10 11 11 12 13 14 14 14
12 13 14 14 14 14 12 11 10 10 10 10 10 10 10 10 10 11 13 14 15 15 14 11 8 8 9 9 8 8 8 9 10 11 11 11 11 11 12 13 13 14 13 11 10 9 8 8 8 7 7 7 7 8 8 8 8 7 7 7 7 7 7 8 9 9 10 10 10 10 9 8 9 9 9 10 10 10 11 11 11 12 12 13 14
13 14 14 14 14 13 12 10 10 10 11 11 10 11 11 11 11 11 11 12 13 15 16 15 13 11 10 8 8 8 8 8 10 11 11 10 11 12 13 13 12 11 11 10 9 8 7 7 7 6 6 7 7 7 7 7 6 6 6 6 6 6 7 8 8 8 8 8 8 7 7 8 8 9 9 9 9 9 9 10 10 11 11 11 12
14 15 15 15 14 13 11 10 10 10 11 11 11 11 11 11 10 10 11 11 12 14 16 16 16 15 14 11 10 10 11 10 10 10 9 9 10 11 10 9 9 9 8 8 8 8 8 7 7 7 6 6 5 5 5 5 5 5 5 5 6 6 7 7 6 7 7 7 8 8 9 10 9 9 8 8 8 8 8 9 9 10 10 11 12
15 16 15 15 14 13 11 11 10 11 11 11 11 11 11 11 10 10 10 11 11 13 14 15 16 16 16 14 12 12 13 12 11 10 10 9 9 9 8 8 8 9 9 9 9 9 9 8 7 7 6 5 5 5 5 5 5 5 5 5 6 6 6 6 6 7 8 9 10 10 10 10 9 8 8 8 8 9 9 9 10 11 12 12 12
15 15 15 14 13 12 11 11 11 11 12 12 11 11 11 11 10 10 10 11 11 12 13 14 15 15 15 15 14 13 13 14 13 12 11 9 8 8 9 9 9 10 10 10 9 9 10 9 7 6 5 4 4 5 5 5 5 5 5 5 6 6 7 7 8 8 9 9 10 10 10 10 9 8 8 9 9 10 10 10 11 12 13 12 12
15 15 14 13 12 11 10 11 11 12 13 13 12 12 11 11 11 10 10 11 12 13 13 14 15 15 14 14 14 14 14 15 14 12 10 9 9 9 10 10 11 11 10 10 9 9 8 8 6 6 5 4 4 4 4 4 4 5 5 6 6 7 7 7 8 8 8 9 9 9 9 9 9 8 9 10 10 11 12 12 13 13 12 11 11
14 14 13 12 11 10 11 11 12 13 13 13 13 13 12 11 11 10 11 12 13 14 14 14 15 14 13 13 12 12 13 15 14 13 11 11 9 9 10 11 11 11 10 9 8 7 7 6 6 6 5 4 4 4 4 4 5 5 6 7 7 7 8 8 8 9 9 9 9 9 9 10 10 10 11 12 12 13 13 14 14 13 12 11 11
14 13 12 11 10 11 12 12 13 14 14 14 14 13 12 11 11 11 12 13 14 14 15 15 15 14 13 13 12 11 12 15 15 14 13 11 9 9 10 10 10 10 9 8 7 6 6 6 5 5 5 4 4 4 4 5 5 6 6 7 8 8 9 9 9 9 10 10 10 11 11 11 11 12 13 14 14 14 14 14 14 13 12 12 11
14 13 13 12 11 12 13 13 14 15 15 14 13 12 11 11 11 12 13 14 14 15 16 16 16 14 13 12 12 12 13 14 14 13 12 10 9 9 9 9 9 9 8 7 6 6 5 5 4 4 4 4 4 5 5 5 6 6 7 8 9 10 10 11 11 11 11 11 11 11 11 12 13 14 14 14 14 14 14 13 13 13 12 12 11
14 14 13 13 13 13 13 14 15 16 15 14 13 12 12 12 13 13 14 15 16 16 16 16 15 14 14 13 12 12 13 13 12 11 11 10 9 9 9 9 9 8 7 6 6 5 5 5 5 5 5 5 5 5 5 6 7 8 8 9 10 11 12 12 12 11 11 11 11 11 12 13 12 12 11 11 11 11 11 10 11 11 12 11 10
15 14 14 14 14 15 15 15 15 16 15 14 13 13 13 13 14 14 15 16 16 16 16 15 14 14 14 13 12 12 12 11 11 10 10 10 9 9 8 8 8 8 7 6 6 6 6 5 5 5 5 5 5 6 7 7 8 8 8 9 9 9 9 9 10 10 10 10 10 10 10 10 9 9 9 9 9 10 10 9 9 9 10 10 9
15 14 15 15 15 15 16 16 16 15 15 14 14 15 14 14 14 15 16 16 16 16 16 15 14 14 14 13 13 13 12 11 11 11 10 10 10 9 8 8 7 7 6 6 6 6 6 6 6 5 5 6 6 7 8 8 7 6 6 6 6 6 6 6 5 6 7 7 8 8 7 8 8 8 9 9 9 9 9 9 8 8 8 9 9
15 14 14 15 16 16 17 17 16 16 15 14 15 15 15 15 15 15 16 17 16 16 16 15 14 14 14 13 13 13 12 11 11 10 10 10 10 9 9 8 8 7 7 7 6 7 6 6 6 6 6 7 8 8 7 6 5 4 5 5 4 4 4 3 3 4 4 5 6 7 7 8 9 9 9 9 8 8 8 7 7 8 9 9 10
14 14 15 15 16 17 18 17 16 16 15 15 15 15 16 16 16 17 17 17 16 16 16 16 15 14 14 13 13 12 12 12 11 11 10 10 10 10 10 9 8 7 7 7 7 7 7 7 6 6 7 8 8 7 5 5 4 4 4 3 3 2 2 2 2 3 3 4 5 6 7 8 9 9 9 9 8 7 7 7 8 9 10 10 11
15 15 15 16 17 18 18 17 17 16 16 15 15 16 17 17 17 18 17 17 17 16 16 16 15 15 14 13 12 12 12 12 12 11 10 10 9 9 9 8 8 8 7 7 7 8 7 7 7 7 7 7 6 5 5 4 4 4 3 3 3 3 2 2 2 3 4 5 6 7 8 9 9 9 9 9 9 9 9 9 10 10 11 11 12
16 16 16 17 18 18 18 17 17 17 17 16 17 18 18 18 19 18 18 17 17 17 16 16 15 15 14 13 13 12 12 12 12 11 10 9 8 8 7 8 8 8 8 8 8 8 8 8 7 7 7 6 5 5 5 4 4 4 4 3 3 3 3 3 3 4 5 6 7 8 8 9 9 9 9 10 10 10 11 11 11 11 11 12 12
17 17 17 17 18 18 18 18 18 18 17 17 17 18 18 19 19 19 18 18 18 18 17 16 15 14 14 13 13 13 13 13 12 11 11 10 9 9 8 8 8 8 9 9 9 9 9 8 8 7 7 6 5 5 5 5 4 4 4 5 5 5 5 6 6 6 7 8 9 9 9 9 9 9 10 10 10 10 11 11 11 11 12 12 12
Wind_Direction
358 343 324 303 288 278 270 265 260 257 254 252 250 250 250 251 253 255 256 257 256 255 255 254 254 253 251 250 248 245 244 242 240 237 235 234 233 233 233 231 232 233 233 234 233 233 234 235 236 236 234 234 235 235 235 235 234 233 232 232 230 229 227 223 229 240 226 214 214 213 217 222 221 225 227 226 230 237 240 242 246 250 253 256 258
10 4 357 343 326 310 295 283 274 268 263 259 257 256 257 258 259 259 259 260 261 259 259 259 258 256 254 252 250 248 245 243 240 237 235 234 233 232 232 231 232 232 232 232 232 232 233 234 236 236 233 233 234 233 233 232 231 230 229 228 229 229 227 224 227 235 227 212 209 210 213 218 221 224 228 230 231 235 240 244 247 252 254 257 260
6 6 5 2 356 347 333 317 301 289 282 276 274 273 272 272 271 268 268 269 268 267 266 265 263 260 257 254 252 249 247 244 241 238 236 235 233 233 232 231 231 231 230 231 231 231 231 233 235 234 231 231 232 232 232 230 228 228 228 228 228 229 228 225 226 232 231 221 215 215 215 219 225 227 230 234 233 234 240 245 248 252 256 259 263
358 360 2 2 1 0 356 350 341 327 315 305 300 298 294 289 284 279 278 277 275 274 272 269 266 261 258 255 252 249 247 245 242 240 238 237 235 234 233 232 232 232 231 232 231 230 230 232 233 232 229 229 230 230 228 228 227 227 228 228 228 229 229 226 226 230 233 229 223 222 223 225 229 230 230 232 234 236 241 246 250 254 259 262 265
353 353 355 356 357 359 359 358 357 355 349 342 335 327 318 309 300 291 286 281 278 277 274 270 266 262 258 256 254 252 250 247 244 243 241 240 238 237 235 234 233 233 233 233 232 231 230 232 232 231 228 227 228 227 226 226 225 226 227 227 227 229 230 229 229 230 233 235 229 226 226 228 230 231 230 231 234 238 242 247 253 258 263 265 267
352 351 351 351 352 355 357 359 360 359 359 358 355 350 342 332 321 309 298 291 285 279 275 272 269 266 263 261 258 255 253 250 247 246 244 242 240 239 237 236 235 235 234 234 233 232 232 233 233 230 227 227 226 226 225 225 224 224 226 226 227 228 229 231 231 230 232 236 234 226 224 225 227 229 229 228 232 237 242 249 256 260 263 267 270
351 352 351 350 351 355 359 1 1 1 2 3 0 358 355 348 342 334 322 312 304 294 285 280 277 274 271 267 263 261 258 254 251 249 247 245 242 240 239 238 237 236 236 236 235 234 234 234 233 231 229 229 229 227 226 224 224 225 226 226 226 227 228 229 230 228 230 233 233 229 225 225 226 228 229 229 230 236 241 248 255 258 262 267 271
350 351 352 354 356 360 2 2 3 4 4 5 4 3 3 359 356 352 344 337 333 324 315 306 297 289 282 275 270 266 261 257 255 252 249 247 245 243 242 240 239 238 238 238 237 237 237 236 235 234 233 233 233 231 228 226 224 225 227 226 224 225 226 226 226 226 227 229 231 230 226 224 223 224 226 223 221 228 236 242 249 257 264 268 269
347 349 352 356 1 3 3 2 4 4 2 3 3 1 0 358 355 352 348 345 343 338 335 330 322 314 303 292 280 272 266 262 259 256 254 251 249 246 245 242 241 239 239 239 239 238 238 237 237 237 237 237 237 235 233 232 229 227 226 225 222 222 223 223 222 222 223 226 228 226 221 220 219 216 216 216 219 228 235 238 245 254 261 264 266
343 346 348 353 358 358 358 360 0 359 359 359 357 354 352 349 346 344 342 341 339 336 334 331 327 324 318 311 301 289 278 273 268 263 260 257 254 250 247 245 242 241 240 239 238 238 238 238 239 239 239 239 239 238 237 236 235 234 233 229 225 222 219 219 220 220 219 222 223 219 216 219 218 216 218 222 225 231 234 235 241 249 252 258 265
339 342 344 346 349 349 351 354 354 354 356 355 353 352 350 346 344 342 340 339 336 335 334 329 327 324 318 313 307 297 289 283 276 270 266 261 258 254 249 247 245 242 241 240 239 239 239 239 239 238 238 239 238 238 238 238 238 238 237 235 233 229 223 220 219 218 218 222 225 220 218 222 222 220 222 224 225 230 235 236 239 241 240 246 259
336 338 339 341 344 346 349 351 352 352 353 353 352 351 349 347 346 345 344 343 340 338 335 333 331 328 321 315 308 304 297 284 277 278 271 257 256 259 256 251 248 246 244 242 242 241 240 239 239 238 238 238 238 238 238 238 239 238 238 237 237 236 233 230 227 224 221 223 226 224 222 224 223 221 222 224 228 233 236 237 236 238 239 240 245
338 340 343 346 348 351 352 353 354 355 355 353 351 349 347 347 349 349 349 347 344 342 339 337 335 331 329 324 318 316 306 285 271 277 278 258 253 259 259 255 252 249 248 246 245 243 242 241 239 238 239 238 238 237 236 236 236 237 237 237 237 237 237 235 234 234 232 229 228 228 227 226 225 226 230 232 232 231 231 232 235 236 238 241 248
343 346 351 353 353 353 353 353 354 353 352 351 349 347 348 350 350 351 350 349 347 348 346 344 343 340 341 343 335 331 325 322 309 286 302 294 268 261 257 253 251 249 248 247 246 244 242 241 239 240 240 238 237 237 236 234 233 232 233 233 234 235 236 234 231 233 236 234 234 235 236 235 236 239 243 241 236 233 233 235 238 241 246 252 259
343 346 349 350 350 351 350 351 351 350 349 348 347 347 349 351 351 351 352 354 353 354 354 353 353 355 359 5 3 21 52 35 23 20 22 352 294 280 270 239 240 244 245 244 243 243 242 241 240 240 240 240 240 239 238 236 234 231 230 230 231 232 233 234 232 232 235 236 239 242 244 245 247 249 250 247 243 245 249 251 253 254 256 259 261
341 344 346 347 347 347 347 347 347 347 348 347 347 349 351 354 354 352 353 355 355 358 2 2 3 8 13 21 25 52 75 54 36 33 39 19 332 340 46 98 192 221 239 243 244 244 244 244 244 243 243 244 245 244 243 242 238 234 232 233 234 233 234 236 237 238 238 238 241 246 250 253 255 255 256 255 254 256 256 253 252 251 250 254 255
339 340 341 342 341 341 341 341 340 341 342 343 344 346 348 349 348 347 345 345 351 358 4 11 22 26 28 40 49 54 90 71 42 35 37 20 1 6 21 33 65 90 100 246 250 248 245 247 250 249 249 250 251 251 249 244 241 239 237 237 238 237 238 240 242 243 242 241 243 247 251 255 257 256 256 255 257 258 250 241 241 240 239 243 247
334 335 334 334 334 333 333 333 334 334 335 337 338 338 337 338 340 342 340 337 342 351 359 9 18 27 35 54 66 58 88 103 55 33 32 23 11 7 2 4 11 359 331 305 283 272 265 261 259 258 255 250 249 250 247 241 240 242 241 241 241 241 242 245 247 247 247 245 246 248 250 253 255 256 253 249 249 248 240 237 241 237 230 232 239
328 328 327 327 326 325 326 326 327 328 328 329 331 330 329 329 330 331 331 331 333 336 344 355 359 12 26 30 46 27 7 83 51 15 13 12 4 356 347 343 338 323 310 296 283 276 271 265 259 259 259 256 250 246 243 240 240 241 242 242 241 241 246 250 251 252 251 249 249 249 250 252 254 254 252 248 245 243 242 245 245 234 227 232 238
322 321 319 320 319 319 320 320 321 323 322 323 326 326 326 324 322 323 323 323 323 322 323 327 328 335 342 333 329 325 320 316 314 327 340 344 345 342 329 317 313 304 295 290 284 279 274 269 263 258 257 256 253 248 246 245 244 245 243 239 238 244 252 256 256 256 256 255 254 254 253 255 256 255 255 252 250 250 251 253 249 238 232 233 234
318 316 314 314 314 313 313 314 314 315 316 318 321 323 323 321 321 321 319 317 314 310 307 305 303 304 307 312 320 322 318 314 310 309 313 317 325 331 322 314 313 305 297 293 287 282 278 275 272 270 264 259 256 254 254 254 253 253 250 245 246 253 256 256 259 259 257 255 255 254 254 254 254 254 255 256 256 257 257 256 254 249 242 237 235
316 315 313 312 310 309 309 309 309 308 309 312 316 318 321 321 320 320 317 314 312 308 308 307 302 301 304 307 313 319 319 315 311 310 310 311 316 323 320 314 311 304 299 297 291 288 287 283 280 281 277 270 264 262 262 261 259 260 261 261 263 264 258 253 253 253 250 248 248 248 248 248 247 248 250 252 255 258 259 259 258 255 251 246 243
314 313 313 312 310 309 309 309 308 306 306 308 310 314 318 319 320 322 320 318 318 316 317 318 315 314 314 314 322 328 326 322 320 319 321 322 323 326 325 319 312 303 299 298 293 288 287 284 284 285 281 274 270 270 269 267 266 266 268 271 275 276 270 260 251 244 240 240 240 240 241 241 243 245 247 250 253 256 258 261 262 261 259 257 253
314 313 313 312 310 310 311 312 312 309 307 306 305 307 312 316 321 324 323 323 323 322 323 325 326 328 326 326 334 343 345 343 341 339 337 336 333 332 331 327 318 305 293 288 285 281 280 281 283 285 282 278 277 277 274 271 269 268 270 277 285 288 284 276 267 255 246 242 242 245 245 243 244 246 250 255 260 262 263 264 264 264 264 265 264
314 314 314 313 311 311 311 312 311 308 307 306 305 305 308 311 315 318 319 318 318 320 325 327 329 332 332 333 340 351 0 1 358 353 344 335 330 328 326 324 319 311 300 293 291 288 285 283 281 280 279 278 279 280 278 276 276 277 276 279 285 290 291 288 284 279 274 268 266 265 267 270 271 270 268 267 268 269 268 267 265 262 261 262 263
311 313 313 313 313 312 312 312 310 306 304 303 304 306 307 307 310 312 312 310 310 313 319 324 329 332 335 339 344 350 354 354 347 343 338 329 325 325 325 324 321 314 306 301 300 298 294 289 284 278 275 274 274 274 274 275 277 281 283 283 284 287 289 288 284 277 274 272 270 270 272 276 277 275 272 266 261 259 260 262 263 262 259 258 259
308 310 313 315 315 314 315 315 313 311 308 304 303 304 304 305 307 309 309 308 311 315 319 324 329 332 334 338 339 337 335 335 336 337 334 329 328 328 326 322 316 309 305 302 298 295 290 284 281 278 275 274 273 273 273 273 275 278 281 284 285 284 284 283 280 276 273 272 271 272 273 273 270 266 262 259 256 255 254 255 257 260 261 261 261
304 307 313 316 315 315 315 315 315 315 312 309 309 308 308 309 306 305 310 311 310 313 317 320 325 327 327 326 323 320 321 324 328 331 329 326 325 324 320 316 311 307 306 304 300 296 290 284 280 276 275 274 273 272 272 272 273 275 278 282 285 285 284 283 281 278 276 274 272 271 271 268 266 265 263 261 260 259 258 257 255 256 258 257 256
301 307 314 318 317 316 315 315 316 317 314 313 313 310 312 316 312 308 310 306 304 306 308 313 320 320 315 311 306 302 307 315 321 322 321 318 317 317 317 321 324 317 311 306 300 294 288 283 280 277 275 275 274 272 272 273 273 275 278 281 285 287 287 287 285 282 281 278 274 272 272 270 269 268 267 265 264 263 261 260 259 258 257 254 251
301 309 316 320 320 320 319 318 319 319 317 319 318 313 311 312 310 308 303 295 294 301 300 302 308 310 309 312 310 301 304 315 316 309 307 310 310 309 309 314 315 308 301 296 291 284 279 275 274 274 274 274 275 276 276 278 280 281 283 285 287 289 290 290 289 288 284 279 277 276 275 273 272 271 270 268 269 270 267 264 263 262 258 253 252
301 309 316 321 322 322 320 319 319 318 318 322 324 322 319 313 302 288 282 280 286 301 305 305 310 317 326 338 339 316 307 312 310 305 306 308 303 297 300 307 306 298 293 291 287 281 280 279 276 275 274 272 275 278 278 279 281 282 284 288 289 291 291 288 288 289 288 285 284 281 277 274 272 271 271 270 272 273 270 267 264 261 257 253 253
298 307 315 319 321 321 318 317 317 316 316 319 323 326 326 323 318 310 295 290 295 306 322 332 332 330 330 330 327 317 310 309 312 309 302 296 293 295 303 309 302 283 278 285 285 280 283 285 279 275 273 267 269 274 276 278 282 282 285 287 287 290 291 287 285 288 291 293 292 287 283 283 280 277 275 274 276 277 274 272 269 266 264 262 260
295 304 311 315 318 318 316 314 314 314 314 317 319 323 325 324 319 314 312 314 309 289 289 317 318 311 306 305 311 316 315 316 315 304 292 291 298 302 304 302 291 281 282 286 284 279 280 282 278 276 273 268 267 270 272 274 275 277 279 279 278 281 283 284 286 290 292 293 294 293 294 293 289 286 283 279 280 282 282 281 279 278 280 279 274
293 300 307 311 313 314 313 311 312 311 312 313 314 315 315 315 313 311 312 317 317 308 303 314 318 312 310 309 310 314 318 321 316 304 298 304 309 301 280 271 284 293 297 297 293 285 281 279 277 275 274 273 272 272 273 273 271 271 272 273 273 274 277 281 286 290 293 295 295 296 297 293 287 286 287 286 285 285 283 283 283 281 282 283 281
294 299 303 307 310 312 309 306 307 309 308 309 308 307 307 304 302 304 307 311 312 312 316 327 331 325 322 322 320 318 317 316 314 310 311 315 311 298 290 290 294 298 301 303 300 293 287 284 282 281 281 280 278 275 274 273 273 272 271 273 274 277 282 286 291 296 298 300 301 299 294 289 288 291 292 291 290 289 285 284 283 281 280 283 284
296 299 302 306 311 311 304 299 302 305 305 304 303 302 301 298 297 299 300 302 305 309 314 324 330 329 327 329 326 321 319 318 316 316 316 316 310 304 302 304 306 307 307 306 302 299 296 292 291 292 291 287 282 276 269 268 268 269 272 277 280 285 291 294 298 301 301 300 299 297 293 294 297 297 293 287 284 284 283 282 283 284 285 286 287
297 299 302 306 310 308 300 295 300 303 302 303 303 300 296 293 293 294 296 299 305 310 313 320 324 324 325 331 331 324 320 320 318 315 312 309 306 304 305 307 309 308 307 304 300 298 296 294 293 295 295 289 278 268 262 263 265 265 271 278 281 285 290 292 291 292 292 291 291 292 294 297 298 294 290 287 286 285 283 282 284 287 287 287 287
293 296 300 303 305 303 296 295 300 303 304 304 302 298 295 293 292 292 295 300 304 307 309 314 316 317 321 328 330 324 319 319 319 318 316 310 301 299 301 303 302 301 301 299 294 289 287 289 290 290 287 277 264 258 259 261 263 266 269 276 281 285 287 287 284 284 285 288 291 291 290 291 289 286 285 286 287 290 290 289 288 289 286 283 283
293 295 296 299 298 295 292 295 300 303 305 304 301 297 294 292 291 291 294 297 298 299 302 304 307 310 317 322 324 323 322 322 322 322 321 313 299 292 294 296 296 295 294 293 288 281 280 283 283 282 278 267 258 258 258 258 262 268 274 278 284 286 287 286 287 287 289 290 292 294 294 291 287 282 280 281 285 289 290 291 291 288 285 282 280
297 296 295 295 293 289 288 292 297 302 305 303 300 295 289 286 287 288 290 290 291 293 296 298 301 308 315 316 317 321 319 316 316 316 313 307 298 291 291 293 293 291 290 287 280 273 273 275 276 276 275 267 258 254 251 253 264 274 281 286 289 290 291 290 288 288 290 292 293 294 296 296 294 291 289 289 292 293 291 290 289 285 280 279 279
300 296 295 294 289 284 284 289 296 303 304 300 295 291 285 282 282 282 283 285 287 290 293 295 298 305 309 307 309 313 308 303 304 305 303 301 298 292 290 291 290 287 285 279 268 262 266 271 274 274 270 262 253 250 253 263 273 278 283 287 289 288 288 288 288 289 290 292 293 294 297 298 299 299 298 296 296 294 291 287 283 279 276 276 280
302 296 294 291 284 279 283 290 298 302 301 296 291 286 281 278 277 277 279 283 286 289 292 293 296 301 301 300 303 303 296 293 294 295 294 293 290 287 287 288 285 282 279 270 258 255 262 267 267 265 258 250 251 257 265 272 277 280 283 284 284 285 285 285 285 287 288 289 293 295 297 299 299 299 299 298 296 294 292 286 279 275 274 277 281
301 295 292 288 282 279 283 291 298 300 299 294 289 281 274 272 273 275 278 282 284 286 289 291 293 296 297 298 299 297 292 290 291 291 290 286 281 281 284 282 276 274 272 264 252 251 256 257 253 250 248 250 259 268 274 279 281 283 284 282 279 280 280 279 280 283 286 290 292 294 295 297 298 297 298 297 295 293 292 287 280 276 276 279 282
299 293 289 285 281 280 283 288 295 299 298 293 285 277 272 271 272 274 277 280 282 283 284 285 289 292 294 296 296 293 290 289 289 288 287 283 278 279 281 278 272 267 263 258 251 249 247 243 242 246 251 259 268 274 280 285 286 285 283 282 280 279 279 279 279 280 281 285 289 292 295 297 297 297 298 299 299 298 295 290 286 283 281 282 283
297 292 286 282 280 279 281 288 296 298 296 290 282 275 271 269 270 272 275 277 279 280 279 280 283 286 290 293 293 289 286 285 284 284 285 284 280 278 278 276 271 263 256 251 247 244 241 240 244 250 257 265 275 284 289 291 291 290 288 286 285 287 289 287 283 279 278 283 289 294 298 299 298 300 301 302 303 303 300 294 291 286 283 283 285
295 289 284 280 279 279 282 289 295 296 292 285 278 274 271 268 268 271 274 276 277 276 276 277 279 282 285 288 288 285 281 278 277 278 280 281 279 276 273 271 266 256 247 243 239 238 239 242 247 254 264 276 286 292 294 293 293 294 293 293 294 299 305 306 297 285 280 283 288 295 302 304 304 304 304 303 303 303 301 296 289 282 281 284 290
294 290 283 279 277 279 282 287 291 291 288 281 274 272 271 271 271 272 274 275 274 274 274 275 276 278 282 284 283 280 277 274 272 273 275 276 276 272 267 264 261 252 244 238 234 235 240 245 251 261 275 285 290 293 292 290 289 291 293 296 299 303 310 319 318 307 296 290 293 300 306 307 307 305 303 301 301 301 300 296 287 283 285 289 293
293 290 285 281 279 279 281 285 288 288 285 280 275 272 272 272 272 273 273 274 274 273 273 274 275 276 279 281 279 276 273 269 267 268 270 272 274 270 265 260 252 242 237 234 234 238 243 247 255 269 281 287 290 290 285 276 273 280 286 285 278 284 301 318 327 329 320 307 306 308 307 305 305 303 299 295 294 293 295 293 288 287 289 291 293
293 292 288 284 281 279 281 284 286 285 284 281 276 274 273 272 272 273 274 274 274 273 272 273 274 275 277 277 275 272 269 265 264 265 267 271 273 268 258 247 235 230 232 236 238 241 244 249 261 276 284 285 284 281 275 266 261 263 267 263 252 253 266 286 306 319 319 314 314 314 310 307 306 304 299 296 292 288 286 287 286 287 287 288 290
293 292 289 286 283 282 282 282 281 282 283 281 276 274 274 274 273 275 275 275 274 273 272 272 273 274 274 274 273 269 266 262 261 262 264 266 264 255 238 227 224 227 233 236 237 240 245 254 267 278 280 275 271 268 264 257 249 246 246 246 243 248 258 269 283 298 307 309 310 311 310 309 308 307 305 303 298 291 288 286 284 284 286 288 290
291 290 288 286 285 283 281 280 279 280 282 280 277 276 276 275 276 277 278 276 275 274 274 274 274 272 271 271 270 267 262 259 259 259 259 256 249 237 226 224 228 231 232 234 237 240 246 257 268 272 268 262 261 260 255 249 244 243 244 245 251 261 270 276 281 288 295 299 303 304 305 305 307 307 307 305 302 298 293 289 285 285 287 288 291